Estación Meteorológica Peña el Pijo (Robertgarden) [ 09/30/20 09:33:23 CEST ]

Fecha Hora Presion(HPa) Temp (°C) Humedad % Rocio (°C) Viento ( m/s) Direccion Lluvia 1Hora(mm) Lluvia 24H(mm) LLuvia Total(mm)
2020-May-01 01:09:15 1011.100 - - - - W     39.88
2020-May-01 02:08:47 1011.200 - - - - W     39.88
2020-May-01 03:09:37 1011.400 - - - - W     39.88
2020-May-01 04:09:12 1011.200 - - - - W     39.88
2020-May-01 05:08:58 1011.000 - - - - W     39.88
2020-May-01 06:09:02 1011.200 - - - - W     39.88
2020-May-01 07:10:52 1011.300 - - - - W     39.88
2020-May-01 08:10:38 1011.900 - - - - W     39.88
2020-May-01 09:09:48 1011.900 - - - - W     39.88
2020-May-01 10:09:22 1011.900 - - - - W     39.88
2020-May-01 11:08:46 1012.000 - - - - W     39.88
2020-May-01 12:09:07 1011.800 - - - - W     39.88
2020-May-01 13:08:59 1012.200 - - - - W     39.88
2020-May-01 14:09:20 1011.700 - - - - W     39.88
2020-May-01 15:09:48 1011.500 - - - - W     39.88
2020-May-01 16:09:01 1011.300 - - - - W     39.88
2020-May-01 17:09:53 1011.000 - - - - W     39.88
2020-May-01 18:09:15 1011.400 - - - - W     39.88
2020-May-01 19:09:10 1011.400 - - - - W     39.88
2020-May-01 20:09:43 1011.800 - - - - W     39.88
2020-May-01 21:09:07 1012.200 - - - - W     39.88
2020-May-01 22:09:00 1012.900 - - - - W     39.88
2020-May-01 23:08:56 1012.900 - - - - W     39.88

Temperatura Máxima:    Temperatura Mínima:
Presión Máxima:1012.900 Hpa    Presión Mínima:1011.000 Hpa


Volver